Weather History for Crookston, MN

Change the Weather History Date:

Tuesday, December 10, 2013

  Actual Average Record
Temperature  
Mean Temperature -9 °F -  
Max Temperature 0 °F 24 °F 41 °F (2002)
Min Temperature -18 °F 9 °F -20 °F (2000)
Degree Days  
Heating Degree Days 74    
Moisture  
Dew Point -16 °F    
Average Humidity 79    
Maximum Humidity 85    
Minimum Humidity 70    
Precipitation  
Precipitation 0.00 in - - ()
Sea Level Pressure  
Sea Level Pressure 30.03 in    
Wind  
Wind Speed 7 mph (WNW)    
Max Wind Speed 13 mph    
Max Gust Speed -    
Visibility 9 miles    
Events Snow    
Averages and records for this station are not official NWS values.
T = Trace of Precipitation, MM = Missing Value Source: NWS Daily Summary

Daily Weather History Graph

Daily Weather History Graph

Search for Another Location

Airport:

Trip Planner

Search our weather history database for the weather conditions in past years. The results will help you decide how hot, cold, wet, or windy it might be!

Date:

Astronomy

Dec. 10, 2013 Rise Set
Actual Time 8:04 AM CST 4:33 PM CST
Civil Twilight 7:28 AM CST 5:09 PM CST
Nautical Twilight 6:49 AM CST 5:49 PM CST
Astronomical Twilight 6:11 AM CST 6:26 PM CST
Moon 12:58 PM CST (12/10) 12:59 AM CST (12/10)
Length of Visible Light 9h 41m
Length of Day
8h 29m
Waxing Gibbous, 62% of the Moon is Illuminated
Dec 10
Waxing Gibbous
Dec 17
Full
Dec 25
Last Quarter
Jan 1
New
Jan 7
First Quarter

Hourly Weather History & Observations

Time (CST) Temp. Windchill Dew Point Humidity Pressure Visibility Wind Dir Wind Speed Gust Speed Precip Events Conditions
12:15 AM -5.8 °F -14.5 °F -9.4 °F 84% 29.84 in 10.0 mi NNW 3.5 mph - N/A   Clear
12:34 AM -9.4 °F -22.7 °F -13.0 °F 84% 29.85 in 10.0 mi NNW 5.8 mph - N/A Snow Light Snow
12:54 AM -9.4 °F -20.9 °F -14.8 °F 77% 29.85 in 10.0 mi NNW 4.6 mph - N/A Snow Light Snow
1:15 AM -9.4 °F - -14.8 °F 77% 29.85 in 10.0 mi Calm Calm - N/A   Clear
1:34 AM -9.4 °F -18.6 °F -14.8 °F 77% 29.85 in 10.0 mi WNW 3.5 mph - N/A   Clear
1:54 AM -14.8 °F -33.5 °F -18.4 °F 84% 29.87 in 10.0 mi NW 9.2 mph - N/A   Clear
2:15 AM -14.8 °F -34.6 °F -18.4 °F 84% 29.87 in 10.0 mi NW 10.4 mph - N/A Snow Light Snow
2:34 AM -13.0 °F -31.3 °F -18.4 °F 77% 29.88 in 10.0 mi NW 9.2 mph - N/A   Clear
2:54 AM -13.0 °F -31.3 °F -18.4 °F 77% 29.88 in 10.0 mi NW 9.2 mph - N/A   Clear
3:15 AM -13.0 °F -27.0 °F -18.4 °F 77% 29.88 in 10.0 mi WNW 5.8 mph - N/A   Clear
3:34 AM -16.6 °F -35.7 °F -20.2 °F 84% 29.89 in 10.0 mi West 9.2 mph - N/A   Clear
3:54 AM -14.8 °F -33.5 °F -20.2 °F 77% 29.89 in 10.0 mi West 9.2 mph - N/A   Clear
4:15 AM -14.8 °F -36.6 °F -18.4 °F 84% 29.91 in 10.0 mi West 12.7 mph - N/A   Clear
4:34 AM -13.0 °F -31.3 °F -18.4 °F 77% 29.91 in 10.0 mi West 9.2 mph - N/A   Clear
4:54 AM -11.2 °F -29.0 °F -16.6 °F 77% 29.91 in 10.0 mi West 9.2 mph - N/A   Clear
5:15 AM -14.8 °F -33.5 °F -18.4 °F 84% 29.92 in 10.0 mi West 9.2 mph - N/A   Clear
5:34 AM -13.0 °F -27.0 °F -18.4 °F 77% 29.92 in 10.0 mi West 5.8 mph - N/A   Clear
5:54 AM -13.0 °F -25.1 °F -18.4 °F 77% 29.91 in 10.0 mi West 4.6 mph - N/A   Clear
6:15 AM -11.2 °F -23.0 °F -16.6 °F 77% 29.90 in 10.0 mi WSW 4.6 mph - N/A   Clear
6:34 AM -14.8 °F -30.8 °F -20.2 °F 77% 29.90 in 3.0 mi West 6.9 mph - N/A   Haze
6:54 AM -11.2 °F -24.8 °F -16.6 °F 77% 29.90 in 10.0 mi WSW 5.8 mph - N/A   Clear
7:15 AM -16.6 °F -31.3 °F -20.2 °F 84% 29.89 in 10.0 mi SW 5.8 mph - N/A   Clear
7:34 AM -16.6 °F -31.3 °F -22.0 °F 76% 29.91 in 10.0 mi WSW 5.8 mph - N/A   Clear
7:55 AM -16.6 °F -32.9 °F -20.2 °F 84% 29.91 in 10.0 mi WSW 6.9 mph - N/A   Clear
8:15 AM -13.0 °F -28.6 °F -18.4 °F 77% 29.91 in 10.0 mi WSW 6.9 mph - N/A   Clear
8:34 AM -16.6 °F -34.4 °F -20.2 °F 84% 29.92 in 10.0 mi WSW 8.1 mph - N/A   Clear
8:55 AM -16.6 °F -31.3 °F -22.0 °F 76% 29.91 in 10.0 mi SW 5.8 mph - N/A   Clear
9:14 AM -14.8 °F -27.2 °F -20.2 °F 77% 29.92 in 10.0 mi WSW 4.6 mph - N/A   Clear
9:34 AM -16.6 °F -35.7 °F -20.2 °F 84% 29.95 in 10.0 mi SW 9.2 mph - N/A   Clear
9:55 AM -13.0 °F -30.0 °F -18.4 °F 77% 29.95 in 10.0 mi SSW 8.1 mph - N/A   Clear
10:14 AM -11.2 °F -27.8 °F -16.6 °F 77% 29.96 in 10.0 mi SSW 8.1 mph - N/A   Clear
10:35 AM -9.4 °F -22.7 °F -14.8 °F 77% 29.96 in 10.0 mi SSW 5.8 mph - N/A   Clear
10:55 AM -9.4 °F - -14.8 °F 77% 29.96 in 10.0 mi Calm Calm - N/A   Clear
11:14 AM -7.6 °F -18.8 °F -11.2 °F 84% 29.96 in 7.0 mi South 4.6 mph - N/A   Clear
11:35 AM -5.8 °F -21.2 °F -11.2 °F 77% 29.96 in 7.0 mi West 8.1 mph - N/A   Clear
11:55 AM -5.8 °F -21.2 °F -9.4 °F 84% 29.96 in 4.0 mi West 8.1 mph - N/A   Haze
12:14 PM -4.0 °F -17.8 °F -7.6 °F 85% 29.97 in 3.0 mi West 6.9 mph - N/A   Mist
12:35 PM -2.2 °F -16.8 °F -7.6 °F 78% 29.97 in 4.0 mi West 8.1 mph - N/A   Clear
12:55 PM -2.2 °F -15.6 °F -5.8 °F 85% 29.97 in 7.0 mi WNW 6.9 mph - N/A   Clear
1:14 PM -0.4 °F -17.6 °F -5.8 °F 78% 29.98 in 7.0 mi NW 11.5 mph - N/A   Clear
1:35 PM -0.4 °F -18.4 °F -5.8 °F 78% 29.98 in 5.0 mi NNW 12.7 mph - N/A   Clear
1:55 PM -0.4 °F -17.6 °F -5.8 °F 78% 29.99 in 7.0 mi NNW 11.5 mph - N/A   Clear
2:14 PM -2.2 °F -18.9 °F -5.8 °F 85% 30.00 in 10.0 mi NNW 10.4 mph - N/A   Clear
2:35 PM -2.2 °F -15.6 °F -5.8 °F 85% 30.01 in 10.0 mi NNW 6.9 mph - N/A   Clear
2:55 PM -2.2 °F -18.0 °F -7.6 °F 78% 30.02 in 10.0 mi NNW 9.2 mph - N/A   Clear
3:14 PM -4.0 °F -21.2 °F -9.4 °F 78% 30.04 in 10.0 mi North 10.4 mph - N/A   Clear
3:35 PM -4.0 °F -21.2 °F -9.4 °F 78% 30.05 in 10.0 mi NNW 10.4 mph - N/A   Clear
3:55 PM -5.8 °F -23.4 °F -11.2 °F 77% 30.06 in 10.0 mi North 10.4 mph - N/A   Clear
4:14 PM -7.6 °F -24.6 °F -13.0 °F 77% 30.08 in 10.0 mi NNW 9.2 mph - N/A   Clear
4:35 PM -7.6 °F -23.4 °F -14.8 °F 71% 30.09 in 10.0 mi NNW 8.1 mph - N/A   Clear
4:54 PM -7.6 °F -24.6 °F -14.8 °F 71% 30.11 in 10.0 mi NNW 9.2 mph - N/A   Clear
5:14 PM -11.2 °F -29.0 °F -16.6 °F 77% 30.12 in 10.0 mi NNW 9.2 mph - N/A   Clear
5:35 PM -11.2 °F -23.0 °F -16.6 °F 77% 30.14 in 10.0 mi NNW 4.6 mph - N/A   Clear
5:54 PM -11.2 °F -24.8 °F -16.6 °F 77% 30.15 in 10.0 mi NNW 5.8 mph - N/A   Clear
6:14 PM -14.8 °F -32.2 °F -18.4 °F 84% 30.16 in 10.0 mi NNW 8.1 mph - N/A   Clear
6:35 PM -14.8 °F - -18.4 °F 84% 30.18 in 10.0 mi Calm Calm - N/A   Clear
6:54 PM -14.8 °F -29.1 °F -18.4 °F 84% 30.19 in 7.0 mi WNW 5.8 mph - N/A   Clear
7:14 PM -13.0 °F - -18.4 °F 77% 30.20 in 10.0 mi Calm Calm - N/A   Clear
7:35 PM -11.2 °F -24.8 °F -16.6 °F 77% 30.22 in 10.0 mi WNW 5.8 mph - N/A   Clear
7:54 PM -16.6 °F -32.9 °F -20.2 °F 84% 30.24 in 10.0 mi NW 6.9 mph - N/A   Clear
8:14 PM -14.8 °F -33.5 °F -20.2 °F 77% 30.25 in 10.0 mi NW 9.2 mph - N/A   Scattered Clouds
8:35 PM -13.0 °F -33.4 °F -18.4 °F 77% 30.26 in 10.0 mi NW 11.5 mph - N/A   Scattered Clouds
8:54 PM -13.0 °F -33.4 °F -18.4 °F 77% 30.27 in 10.0 mi NW 11.5 mph - N/A   Scattered Clouds
9:15 PM -16.6 °F -31.3 °F -22.0 °F 76% 30.29 in 10.0 mi NW 5.8 mph - N/A   Scattered Clouds
9:34 PM -14.8 °F -30.8 °F -20.2 °F 77% 30.30 in 10.0 mi NW 6.9 mph - N/A   Mostly Cloudy
9:54 PM -14.8 °F -34.6 °F -18.4 °F 84% 30.30 in 10.0 mi NW 10.4 mph - N/A   Scattered Clouds
10:15 PM -18.4 °F -33.4 °F -25.6 °F 70% 30.32 in 10.0 mi West 5.8 mph - N/A   Clear
10:34 PM -18.4 °F -35.1 °F -23.8 °F 76% 30.32 in 10.0 mi West 6.9 mph - N/A   Clear
10:55 PM -18.4 °F -36.6 °F -23.8 °F 76% 30.33 in 10.0 mi WNW 8.1 mph - N/A   Clear
11:14 PM -18.4 °F -35.1 °F -23.8 °F 76% 30.34 in 10.0 mi WNW 6.9 mph - N/A   Clear
11:34 PM -18.4 °F -37.9 °F -23.8 °F 76% 30.34 in 10.0 mi WNW 9.2 mph - N/A   Clear
11:55 PM -18.4 °F -40.2 °F -23.8 °F 76% 30.35 in 10.0 mi WNW 11.5 mph - N/A   Clear